Location: Chillicothe
(39.7950°N, 93.5520°W)
Time: 03:19:21
(UTC-06:00)

BEESAT - Pass Details

Date: 21 November 2019
Orbit: 700 x 709 km, 98.6° (Epoch: 09 December)

Event Time Altitude Azimuth Distance (km) Brightness Sun altitude
Rises 19:23:48 0° 349° (N) 3,097 ? -28.5°
Reaches altitude 10° 19:28:03 10° 313° (NW) 2,174 ? -29.3°
Maximum altitude 19:29:03 11° 300° (WNW) 2,131 ? -29.5°
Drops below altitude 10° 19:30:03 10° 288° (WNW) 2,172 ? -29.7°
Sets 19:34:18 0° 251° (WSW) 3,087 ? -30.5°
